Time,TemperatureF,DewpointF,PressureIn,WindDirection,WindDirectionDegrees,WindSpeedMPH,WindSpeedGustMPH,Humidity,HourlyPrecipIn,Conditions,Clouds,dailyrainin,SoftwareType,DateUTC
2013-06-24 00:02:00,78.0,-99.9,30.15,ENE,69,4.0,5.0,-999,-99.99,,,-99.99,,2013-06-24 04:02:00,
2013-06-24 00:12:00,78.0,-99.9,30.15,ENE,66,4.0,7.0,-999,-99.99,,,-99.99,,2013-06-24 04:12:00,
2013-06-24 00:22:00,78.0,-99.9,30.15,ENE,66,4.0,7.0,-999,-99.99,,,-99.99,,2013-06-24 04:22:00,
2013-06-24 00:33:00,78.0,-99.9,30.15,ENE,78,4.0,7.0,-999,-99.99,,,-99.99,,2013-06-24 04:33:00,
2013-06-24 00:43:00,78.0,-99.9,30.15,ENE,64,5.0,8.0,-999,-99.99,,,-99.99,,2013-06-24 04:43:00,
2013-06-24 00:53:00,77.0,-99.9,30.14,ENE,77,5.0,7.0,-999,-99.99,,,-99.99,,2013-06-24 04:53:00,
2013-06-24 01:02:00,77.0,-99.9,30.14,East,79,6.0,10.0,-999,-99.99,,,-99.99,,2013-06-24 05:02:00,
2013-06-24 01:12:00,77.0,-99.9,30.14,East,82,5.0,9.0,-999,-99.99,,,-99.99,,2013-06-24 05:12:00,
2013-06-24 01:48:00,77.0,-99.9,30.14,ENE,61,5.0,7.0,-999,-99.99,,,-99.99,,2013-06-24 05:48:00,
2013-06-24 01:58:00,77.0,-99.9,30.14,ENE,66,5.0,7.0,-999,-99.99,,,-99.99,,2013-06-24 05:58:00,
2013-06-24 02:10:00,76.0,-99.9,30.14,ENE,62,4.0,6.0,-999,-99.99,,,-99.99,,2013-06-24 06:10:00,
2013-06-24 02:24:00,76.0,-99.9,30.13,ENE,65,4.0,7.0,-999,-99.99,,,-99.99,,2013-06-24 06:24:00,
2013-06-24 02:40:00,76.0,-99.9,30.13,ENE,75,4.0,7.0,-999,-99.99,,,-99.99,,2013-06-24 06:40:00,
2013-06-24 02:48:00,76.0,-99.9,30.13,ENE,69,4.0,6.0,-999,-99.99,,,-99.99,,2013-06-24 06:48:00,
2013-06-24 02:57:00,76.0,-99.9,30.13,ENE,73,4.0,8.0,-999,-99.99,,,-99.99,,2013-06-24 06:57:00,
2013-06-24 03:16:00,76.0,-99.9,30.12,ENE,72,3.0,5.0,-999,-99.99,,,-99.99,,2013-06-24 07:16:00,
2013-06-24 03:58:00,76.0,-99.9,30.12,ENE,66,4.0,6.0,-999,-99.99,,,-99.99,,2013-06-24 07:58:00,
2013-06-24 04:15:00,75.0,-99.9,30.12,East,80,4.0,6.0,-999,-99.99,,,-99.99,,2013-06-24 08:15:00,
2013-06-24 04:38:00,75.0,-99.9,30.12,East,80,4.0,7.0,-999,-99.99,,,-99.99,,2013-06-24 08:38:00,
2013-06-24 04:48:00,76.0,-99.9,30.12,ENE,66,5.0,8.0,-999,-99.99,,,-99.99,,2013-06-24 08:48:00,
2013-06-24 05:08:00,76.0,-99.9,30.12,East,81,4.0,8.0,-999,-99.99,,,-99.99,,2013-06-24 09:08:00,
2013-06-24 05:16:00,76.0,-99.9,30.12,East,79,4.0,6.0,-999,-99.99,,,-99.99,,2013-06-24 09:16:00,
2013-06-24 05:28:00,76.0,-99.9,30.11,East,79,3.0,6.0,-999,-99.99,,,-99.99,,2013-06-24 09:28:00,
2013-06-24 05:49:00,76.0,-99.9,30.11,East,83,3.0,4.0,-999,-99.99,,,-99.99,,2013-06-24 09:49:00,
2013-06-24 06:00:00,76.0,-99.9,30.11,ENE,73,3.0,6.0,-999,-99.99,,,-99.99,,2013-06-24 10:00:00,
2013-06-24 06:15:00,75.0,-99.9,30.12,NE,39,3.0,5.0,-999,-99.99,,,-99.99,,2013-06-24 10:15:00,
2013-06-24 06:38:00,75.0,-99.9,30.13,NE,44,4.0,6.0,-999,-99.99,,,-99.99,,2013-06-24 10:38:00,
2013-06-24 06:59:00,75.0,-99.9,30.13,ENE,71,4.0,6.0,-999,-99.99,,,-99.99,,2013-06-24 10:59:00,
2013-06-24 07:04:00,74.0,-99.9,30.13,ENE,68,4.0,6.0,-999,-99.99,,,-99.99,,2013-06-24 11:04:00,
2013-06-24 07:17:00,74.0,-99.9,30.14,East,79,5.0,6.0,-999,-99.99,,,-99.99,,2013-06-24 11:17:00,
2013-06-24 07:36:00,75.0,-99.9,30.14,ENE,75,4.0,6.0,-999,-99.99,,,-99.99,,2013-06-24 11:36:00,
2013-06-24 07:51:00,76.0,-99.9,30.14,ENE,69,3.0,7.0,-999,-99.99,,,-99.99,,2013-06-24 11:51:00,
2013-06-24 07:58:00,76.0,-99.9,30.14,ENE,75,6.0,9.0,-999,-99.99,,,-99.99,,2013-06-24 11:58:00,
2013-06-24 08:07:00,76.0,-99.9,30.14,East,80,5.0,8.0,-999,-99.99,,,-99.99,,2013-06-24 12:07:00,
2013-06-24 08:26:00,79.0,-99.9,30.14,East,80,2.0,7.0,-999,-99.99,,,-99.99,,2013-06-24 12:26:00,
2013-06-24 08:37:00,79.0,-99.9,30.14,East,97,4.0,9.0,-999,-99.99,,,-99.99,,2013-06-24 12:37:00,
2013-06-24 08:49:00,80.0,-99.9,30.14,East,97,5.0,9.0,-999,-99.99,,,-99.99,,2013-06-24 12:49:00,
2013-06-24 08:56:00,80.0,-99.9,30.15,East,94,4.0,9.0,-999,-99.99,,,-99.99,,2013-06-24 12:56:00,
2013-06-24 09:24:00,81.0,-99.9,30.16,East,81,5.0,9.0,-999,-99.99,,,-99.99,,2013-06-24 13:24:00,
2013-06-24 09:46:00,82.0,-99.9,30.16,ESE,112,5.0,8.0,-999,-99.99,,,-99.99,,2013-06-24 13:46:00,
2013-06-24 10:16:00,82.0,-99.9,30.16,ESE,115,6.0,9.0,-999,-99.99,,,-99.99,,2013-06-24 14:16:00,
2013-06-24 10:38:00,83.0,-99.9,30.17,SE,125,6.0,9.0,-999,-99.99,,,-99.99,,2013-06-24 14:38:00,
2013-06-24 10:47:00,84.0,-99.9,30.18,East,91,5.0,10.0,-999,-99.99,,,-99.99,,2013-06-24 14:47:00,
2013-06-24 11:06:00,84.0,-99.9,30.18,East,91,7.0,12.0,-999,-99.99,,,-99.99,,2013-06-24 15:06:00,
2013-06-24 11:16:00,83.0,-99.9,30.18,SE,124,6.0,11.0,-999,-99.99,,,-99.99,,2013-06-24 15:16:00,
2013-06-24 12:05:00,85.0,-99.9,30.18,SE,133,7.0,11.0,-999,-99.99,,,-99.99,,2013-06-24 16:05:00,
2013-06-24 12:15:00,85.0,-99.9,30.18,ESE,121,8.0,12.0,-999,-99.99,,,-99.99,,2013-06-24 16:15:00,
2013-06-24 12:25:00,86.0,-99.9,30.18,ESE,107,4.0,9.0,-999,-99.99,,,-99.99,,2013-06-24 16:25:00,
2013-06-24 13:48:00,86.0,-99.9,30.16,SW,228,6.0,12.0,-999,-99.99,,,-99.99,,2013-06-24 17:48:00,
2013-06-24 14:15:00,85.0,-99.9,30.15,WSW,251,7.0,9.0,-999,-99.99,,,-99.99,,2013-06-24 18:15:00,
2013-06-24 14:50:00,84.0,-99.9,30.14,WSW,243,9.0,13.0,-999,-99.99,,,-99.99,,2013-06-24 18:50:00,
2013-06-24 14:56:00,84.0,-99.9,30.14,WSW,243,9.0,13.0,-999,-99.99,,,-99.99,,2013-06-24 18:56:00,
2013-06-24 15:46:00,84.0,-99.9,30.12,WNW,292,8.0,9.0,-999,-99.99,,,-99.99,,2013-06-24 19:46:00,
2013-06-24 16:12:00,84.0,-99.9,30.11,WNW,301,9.0,11.0,-999,-99.99,,,-99.99,,2013-06-24 20:12:00,
2013-06-24 16:24:00,84.0,-99.9,30.11,WNW,295,10.0,11.0,-999,-99.99,,,-99.99,,2013-06-24 20:24:00,
2013-06-24 16:47:00,84.0,-99.9,30.12,SSW,192,2.0,8.0,-999,-99.99,,,-99.99,,2013-06-24 20:47:00,
2013-06-24 17:55:00,74.0,-99.9,30.11,SSW,206,1.0,5.0,-999,-99.99,,,-99.99,,2013-06-24 21:55:00,
2013-06-24 18:16:00,76.0,-99.9,30.11,SW,234,5.0,7.0,-999,-99.99,,,-99.99,,2013-06-24 22:16:00,
2013-06-24 18:25:00,77.0,-99.9,30.10,SSE,154,6.0,7.0,-999,-99.99,,,-99.99,,2013-06-24 22:25:00,
2013-06-24 18:51:00,79.0,-99.9,30.10,SSE,163,5.0,7.0,-999,-99.99,,,-99.99,,2013-06-24 22:51:00,
2013-06-24 19:06:00,80.0,-99.9,30.10,ESE,121,2.0,3.0,-999,-99.99,,,-99.99,,2013-06-24 23:06:00,
2013-06-24 19:27:00,80.0,-99.9,30.09,ESE,120,5.0,6.0,-999,-99.99,,,-99.99,,2013-06-24 23:27:00,
2013-06-24 19:46:00,80.0,-99.9,30.10,ESE,122,5.0,6.0,-999,-99.99,,,-99.99,,2013-06-24 23:46:00,
2013-06-24 20:06:00,79.0,-99.9,30.11,SE,139,5.0,8.0,-999,-99.99,,,-99.99,,2013-06-25 00:06:00,
2013-06-24 20:36:00,80.0,-99.9,30.10,SE,132,4.0,6.0,-999,-99.99,,,-99.99,,2013-06-25 00:36:00,
2013-06-24 20:49:00,79.0,-99.9,30.10,SE,138,2.0,4.0,-999,-99.99,,,-99.99,,2013-06-25 00:49:00,
2013-06-24 21:04:00,79.0,-99.9,30.11,ESE,110,1.0,2.0,-999,-99.99,,,-99.99,,2013-06-25 01:04:00,
2013-06-24 21:24:00,79.0,-99.9,30.10,ENE,77,3.0,3.0,-999,-99.99,,,-99.99,,2013-06-25 01:24:00,
2013-06-24 21:39:00,79.0,-99.9,30.10,ENE,71,3.0,4.0,-999,-99.99,,,-99.99,,2013-06-25 01:39:00,
2013-06-24 22:16:00,79.0,-99.9,30.11,East,85,2.0,3.0,-999,-99.99,,,-99.99,,2013-06-25 02:16:00,
2013-06-24 22:25:00,79.0,-99.9,30.12,ENE,72,2.0,2.0,-999,-99.99,,,-99.99,,2013-06-25 02:25:00,
2013-06-24 22:50:00,79.0,-99.9,30.13,NE,50,3.0,4.0,-999,-99.99,,,-99.99,,2013-06-25 02:50:00,
2013-06-24 23:18:00,79.0,-99.9,30.13,ENE,58,2.0,2.0,-999,-99.99,,,-99.99,,2013-06-25 03:18:00,